QPF
0.00 0.01 0.02 0.03 0.05 0.08 0.07 0.06 0.07 0.06 0.06 0.05 0.05 0.07 0.09 0.08 0.08 0.08 0.07 0.06 0.05 0.05 0.04 0.04 0.03 0.03 0.03 0.04 0.04 0.03 0.03 0.03 0.03 0.03 0.03 0.04 0.02 0.02 0.01 0.01 0.02 0.03 0.03
0.00 0.01 0.03 0.03 0.04 0.06 0.07 0.06 0.06 0.05 0.05 0.06 0.05 0.07 0.08 0.09 0.08 0.08 0.07 0.06 0.05 0.05 0.04 0.05 0.03 0.03 0.03 0.03 0.03 0.01 0.01 0.01 0.02 0.02 0.02 0.01 0.02 0.02 0.02 0.01 0.01 0.02 0.03
0.00 0.01 0.02 0.04 0.04 0.05 0.05 0.05 0.04 0.05 0.05 0.04 0.06 0.05 0.06 0.07 0.07 0.06 0.06 0.06 0.06 0.04 0.05 0.06 0.04 0.03 0.03 0.02 0.03 0.01 0.01 0.01 0.01 0.02 0.01 0.02 0.02 0.03 0.03 0.02 0.02 0.03 0.02
0.00 0.00 0.02 0.04 0.04 0.04 0.04 0.03 0.04 0.04 0.04 0.03 0.04 0.04 0.04 0.04 0.06 0.06 0.05 0.06 0.05 0.04 0.04 0.05 0.04 0.02 0.02 0.02 0.03 0.02 0.01 0.01 0.00 0.01 0.01 0.02 0.03 0.04 0.03 0.03 0.03 0.03 0.03
0.00 0.01 0.02 0.03 0.03 0.03 0.04 0.04 0.04 0.05 0.04 0.03 0.03 0.03 0.03 0.04 0.05 0.05 0.05 0.05 0.05 0.04 0.03 0.04 0.04 0.03 0.01 0.01 0.02 0.02 0.01 0.00 0.00 0.00 0.00 0.01 0.02 0.03 0.03 0.04 0.03 0.03 0.03
0.00 0.00 0.01 0.02 0.03 0.03 0.03 0.03 0.04 0.05 0.05 0.04 0.03 0.03 0.03 0.03 0.04 0.04 0.05 0.05 0.05 0.04 0.04 0.05 0.04 0.03 0.01 0.01 0.01 0.01 0.01 0.00 0.00 0.00 0.00 0.01 0.02 0.03 0.02 0.02 0.02 0.03 0.03
0.01 0.01 0.01 0.02 0.02 0.02 0.03 0.03 0.04 0.06 0.05 0.05 0.04 0.03 0.02 0.02 0.02 0.02 0.04 0.05 0.05 0.05 0.05 0.05 0.05 0.04 0.02 0.01 0.01 0.00 0.00 0.00 0.00 0.00 0.01 0.01 0.02 0.02 0.01 0.01 0.02 0.03 0.03
0.02 0.02 0.02 0.03 0.03 0.03 0.03 0.04 0.04 0.07 0.07 0.06 0.04 0.03 0.02 0.03 0.03 0.02 0.02 0.04 0.04 0.05 0.06 0.05 0.05 0.04 0.03 0.02 0.01 0.00 0.00 0.00 0.00 0.00 0.00 0.02 0.03 0.02 0.02 0.02 0.03 0.03 0.03
0.02 0.02 0.02 0.03 0.04 0.04 0.03 0.05 0.05 0.07 0.08 0.08 0.06 0.03 0.02 0.02 0.03 0.02 0.02 0.03 0.04 0.04 0.04 0.05 0.05 0.04 0.04 0.03 0.01 0.01 0.00 0.00 0.00 0.00 0.00 0.01 0.02 0.02 0.02 0.02 0.03 0.04 0.04
0.02 0.02 0.02 0.02 0.04 0.05 0.04 0.04 0.05 0.08 0.10 0.10 0.07 0.04 0.02 0.02 0.02 0.03 0.02 0.02 0.03 0.04 0.04 0.04 0.04 0.04 0.03 0.03 0.02 0.01 0.01 0.01 0.00 0.00 0.00 0.01 0.02 0.02 0.03 0.02 0.03 0.03 0.03
0.03 0.03 0.02 0.03 0.04 0.05 0.05 0.05 0.05 0.07 0.09 0.11 0.09 0.05 0.03 0.03 0.02 0.03 0.03 0.03 0.03 0.04 0.05 0.05 0.04 0.03 0.02 0.03 0.02 0.01 0.01 0.01 0.00 0.00 0.00 0.01 0.01 0.02 0.02 0.02 0.02 0.02 0.02
0.03 0.03 0.03 0.03 0.03 0.03 0.03 0.03 0.05 0.07 0.07 0.08 0.07 0.05 0.04 0.04 0.03 0.03 0.04 0.03 0.03 0.04 0.05 0.06 0.05 0.04 0.02 0.02 0.02 0.02 0.01 0.01 0.01 0.01 0.01 0.01 0.03 0.03 0.02 0.01 0.02 0.02 0.02
0.03 0.03 0.03 0.03 0.03 0.04 0.03 0.02 0.03 0.04 0.05 0.05 0.05 0.04 0.04 0.04 0.05 0.04 0.04 0.04 0.05 0.05 0.06 0.06 0.06 0.03 0.02 0.01 0.02 0.02 0.01 0.01 0.01 0.01 0.01 0.01 0.04 0.05 0.03 0.02 0.01 0.02 0.02
0.03 0.03 0.03 0.03 0.03 0.03 0.03 0.02 0.03 0.03 0.03 0.04 0.04 0.05 0.04 0.04 0.05 0.06 0.04 0.04 0.05 0.05 0.06 0.06 0.06 0.03 0.01 0.01 0.02 0.02 0.02 0.01 0.01 0.01 0.01 0.01 0.03 0.05 0.04 0.04 0.03 0.02 0.01
0.02 0.03 0.04 0.04 0.04 0.03 0.03 0.02 0.02 0.03 0.03 0.03 0.03 0.04 0.05 0.06 0.05 0.07 0.06 0.04 0.04 0.04 0.05 0.06 0.06 0.04 0.02 0.01 0.01 0.02 0.02 0.02 0.01 0.01 0.01 0.00 0.02 0.04 0.04 0.04 0.02 0.02 0.02
0.01 0.02 0.03 0.04 0.04 0.04 0.04 0.03 0.02 0.02 0.03 0.03 0.03 0.03 0.03 0.06 0.08 0.05 0.07 0.06 0.05 0.04 0.04 0.06 0.05 0.04 0.03 0.01 0.01 0.01 0.01 0.02 0.01 0.01 0.01 0.00 0.01 0.02 0.04 0.04 0.02 0.02 0.02
0.01 0.01 0.02 0.03 0.04 0.04 0.05 0.05 0.04 0.03 0.03 0.03 0.04 0.04 0.03 0.04 0.08 0.10 0.06 0.06 0.07 0.06 0.05 0.06 0.06 0.05 0.04 0.02 0.01 0.01 0.01 0.01 0.01 0.01 0.01 0.01 0.01 0.01 0.02 0.04 0.04 0.03 0.02
0.01 0.01 0.01 0.02 0.03 0.03 0.05 0.06 0.05 0.04 0.04 0.03 0.03 0.05 0.04 0.04 0.07 0.10 0.09 0.06 0.06 0.08 0.07 0.07 0.07 0.06 0.05 0.03 0.01 0.01 0.00 0.01 0.02 0.02 0.01 0.01 0.01 0.01 0.01 0.02 0.03 0.03 0.03
0.01 0.00 0.01 0.01 0.02 0.03 0.04 0.05 0.06 0.07 0.07 0.05 0.04 0.05 0.06 0.05 0.05 0.09 0.11 0.07 0.06 0.07 0.08 0.08 0.07 0.07 0.06 0.04 0.02 0.01 0.00 0.01 0.02 0.02 0.02 0.01 0.01 0.01 0.01 0.01 0.02 0.03 0.02
0.01 0.01 0.01 0.01 0.01 0.02 0.03 0.04 0.06 0.07 0.08 0.07 0.04 0.04 0.05 0.07 0.07 0.08 0.09 0.09 0.07 0.07 0.07 0.08 0.09 0.07 0.07 0.05 0.03 0.02 0.01 0.01 0.01 0.02 0.02 0.02 0.02 0.01 0.01 0.02 0.01 0.01 0.02
0.01 0.01 0.01 0.01 0.01 0.02 0.03 0.04 0.04 0.06 0.06 0.06 0.05 0.03 0.04 0.07 0.09 0.10 0.11 0.09 0.07 0.07 0.10 0.09 0.09 0.10 0.08 0.07 0.06 0.03 0.02 0.01 0.01 0.01 0.02 0.02 0.02 0.01 0.01 0.01 0.01 0.01 0.01
0.02 0.01 0.01 0.01 0.00 0.01 0.02 0.03 0.03 0.04 0.04 0.04 0.04 0.03 0.03 0.05 0.09 0.13 0.14 0.14 0.09 0.06 0.08 0.12 0.11 0.12 0.11 0.09 0.08 0.06 0.03 0.02 0.01 0.01 0.02 0.02 0.02 0.02 0.01 0.01 0.01 0.00 0.01
0.02 0.01 0.01 0.01 0.01 0.01 0.01 0.03 0.03 0.04 0.04 0.04 0.04 0.04 0.03 0.04 0.06 0.11 0.14 0.14 0.13 0.09 0.07 0.11 0.14 0.12 0.13 0.11 0.09 0.08 0.05 0.03 0.01 0.01 0.01 0.02 0.03 0.03 0.03 0.02 0.02 0.01 0.01
0.03 0.01 0.01 0.01 0.01 0.01 0.01 0.02 0.04 0.03 0.04 0.04 0.03 0.03 0.04 0.04 0.04 0.06 0.10 0.12 0.13 0.10 0.08 0.08 0.14 0.14 0.13 0.13 0.11 0.08 0.06 0.04 0.03 0.02 0.01 0.01 0.02 0.03 0.04 0.03 0.03 0.02 0.01
0.05 0.03 0.01 0.01 0.01 0.01 0.01 0.01 0.03 0.05 0.04 0.04 0.04 0.03 0.03 0.04 0.04 0.05 0.06 0.08 0.11 0.11 0.09 0.08 0.10 0.15 0.14 0.11 0.12 0.11 0.08 0.06 0.04 0.03 0.02 0.02 0.03 0.03 0.04 0.05 0.06 0.04 0.03
0.06 0.06 0.04 0.02 0.02 0.02 0.01 0.01 0.02 0.04 0.06 0.05 0.04 0.05 0.05 0.06 0.06 0.06 0.06 0.06 0.08 0.10 0.10 0.09 0.10 0.11 0.15 0.14 0.12 0.13 0.11 0.09 0.07 0.05 0.04 0.03 0.04 0.04 0.04 0.04 0.05 0.06 0.05
MSLP
1026.73 1026.26 1025.60 1024.90 1024.31 1023.90 1023.67 1023.58 1023.54 1023.48 1023.35 1023.12 1022.82 1022.52 1022.25 1022.06 1021.95 1021.89 1021.84 1021.75 1021.58 1021.33 1021.01 1020.68 1020.38 1020.15 1019.98 1019.87 1019.77 1019.63 1019.44 1019.17 1018.84 1018.48 1018.13 1017.83 1017.59 1017.40 1017.26 1017.14 1017.01 1016.86 1016.70
1027.23 1026.74 1026.08 1025.40 1024.84 1024.46 1024.25 1024.18 1024.16 1024.10 1023.97 1023.74 1023.46 1023.16 1022.90 1022.72 1022.62 1022.57 1022.52 1022.42 1022.24 1021.97 1021.65 1021.32 1021.02 1020.78 1020.62 1020.50 1020.38 1020.23 1020.01 1019.71 1019.35 1018.96 1018.58 1018.24 1017.97 1017.76 1017.60 1017.45 1017.29 1017.11 1016.93
1027.79 1027.25 1026.57 1025.89 1025.35 1024.99 1024.82 1024.78 1024.80 1024.78 1024.67 1024.47 1024.21 1023.92 1023.68 1023.50 1023.39 1023.32 1023.25 1023.12 1022.92 1022.63 1022.30 1021.95 1021.64 1021.39 1021.21 1021.07 1020.93 1020.75 1020.49 1020.16 1019.76 1019.34 1018.93 1018.57 1018.27 1018.04 1017.85 1017.67 1017.48 1017.28 1017.07
1028.38 1027.79 1027.07 1026.39 1025.86 1025.54 1025.41 1025.43 1025.49 1025.51 1025.45 1025.29 1025.05 1024.79 1024.55 1024.36 1024.23 1024.13 1024.01 1023.85 1023.61 1023.29 1022.93 1022.57 1022.23 1021.96 1021.76 1021.58 1021.40 1021.18 1020.88 1020.51 1020.08 1019.62 1019.19 1018.81 1018.49 1018.23 1018.02 1017.81 1017.60 1017.37 1017.13
1028.96 1028.32 1027.59 1026.92 1026.42 1026.13 1026.06 1026.12 1026.23 1026.30 1026.28 1026.15 1025.94 1025.69 1025.45 1025.25 1025.09 1024.95 1024.79 1024.58 1024.30 1023.95 1023.57 1023.18 1022.82 1022.52 1022.27 1022.05 1021.83 1021.55 1021.21 1020.79 1020.33 1019.85 1019.40 1019.00 1018.67 1018.39 1018.15 1017.92 1017.67 1017.41 1017.15
1029.49 1028.84 1028.12 1027.48 1027.02 1026.79 1026.76 1026.86 1027.01 1027.12 1027.13 1027.02 1026.83 1026.58 1026.33 1026.11 1025.92 1025.75 1025.55 1025.31 1025.00 1024.62 1024.21 1023.80 1023.42 1023.08 1022.79 1022.52 1022.24 1021.91 1021.52 1021.07 1020.58 1020.08 1019.62 1019.21 1018.86 1018.57 1018.30 1018.04 1017.76 1017.47 1017.17
1029.94 1029.31 1028.64 1028.07 1027.67 1027.49 1027.51 1027.64 1027.81 1027.92 1027.94 1027.84 1027.65 1027.40 1027.15 1026.91 1026.70 1026.50 1026.28 1026.01 1025.69 1025.30 1024.88 1024.45 1024.05 1023.67 1023.34 1023.01 1022.67 1022.29 1021.85 1021.37 1020.86 1020.36 1019.89 1019.48 1019.13 1018.81 1018.52 1018.23 1017.91 1017.57 1017.24
1030.30 1029.75 1029.17 1028.68 1028.36 1028.24 1028.29 1028.43 1028.59 1028.69 1028.69 1028.58 1028.37 1028.12 1027.86 1027.62 1027.40 1027.19 1026.96 1026.69 1026.36 1025.97 1025.55 1025.12 1024.69 1024.29 1023.92 1023.54 1023.15 1022.72 1022.25 1021.74 1021.22 1020.71 1020.25 1019.84 1019.47 1019.15 1018.83 1018.49 1018.13 1017.74 1017.35
1030.61 1030.16 1029.69 1029.30 1029.07 1029.00 1029.06 1029.19 1029.32 1029.38 1029.35 1029.20 1028.98 1028.72 1028.46 1028.22 1028.00 1027.79 1027.57 1027.31 1026.99 1026.62 1026.20 1025.77 1025.34 1024.92 1024.51 1024.09 1023.66 1023.19 1022.69 1022.17 1021.64 1021.14 1020.67 1020.26 1019.89 1019.54 1019.19 1018.81 1018.39 1017.94 1017.49
1030.88 1030.55 1030.20 1029.92 1029.76 1029.73 1029.80 1029.90 1029.98 1029.99 1029.90 1029.73 1029.49 1029.22 1028.96 1028.72 1028.52 1028.32 1028.10 1027.85 1027.55 1027.19 1026.79 1026.37 1025.94 1025.51 1025.08 1024.63 1024.17 1023.67 1023.15 1022.61 1022.08 1021.58 1021.12 1020.71 1020.32 1019.95 1019.56 1019.12 1018.65 1018.14 1017.62
1031.14 1030.92 1030.69 1030.51 1030.42 1030.41 1030.47 1030.53 1030.55 1030.51 1030.37 1030.16 1029.91 1029.64 1029.39 1029.16 1028.96 1028.77 1028.56 1028.31 1028.01 1027.66 1027.28 1026.86 1026.44 1026.01 1025.57 1025.11 1024.62 1024.11 1023.57 1023.02 1022.48 1021.98 1021.52 1021.09 1020.69 1020.29 1019.86 1019.38 1018.84 1018.27 1017.69
1031.41 1031.29 1031.15 1031.05 1031.00 1031.01 1031.04 1031.06 1031.03 1030.93 1030.76 1030.54 1030.28 1030.02 1029.78 1029.57 1029.37 1029.17 1028.94 1028.68 1028.37 1028.02 1027.64 1027.23 1026.82 1026.39 1025.95 1025.48 1024.98 1024.45 1023.90 1023.34 1022.79 1022.28 1021.80 1021.36 1020.94 1020.50 1020.03 1019.51 1018.93 1018.31 1017.68
1031.69 1031.64 1031.57 1031.52 1031.50 1031.50 1031.50 1031.48 1031.41 1031.28 1031.09 1030.87 1030.63 1030.39 1030.16 1029.95 1029.74 1029.52 1029.27 1028.98 1028.64 1028.27 1027.88 1027.47 1027.06 1026.64 1026.20 1025.73 1025.22 1024.68 1024.11 1023.53 1022.97 1022.43 1021.94 1021.47 1021.02 1020.56 1020.06 1019.50 1018.89 1018.24 1017.58
1031.94 1031.94 1031.92 1031.90 1031.89 1031.88 1031.86 1031.80 1031.70 1031.56 1031.38 1031.17 1030.96 1030.75 1030.54 1030.34 1030.11 1029.86 1029.56 1029.21 1028.84 1028.43 1028.02 1027.61 1027.19 1026.78 1026.34 1025.87 1025.35 1024.79 1024.20 1023.59 1022.99 1022.43 1021.90 1021.42 1020.94 1020.46 1019.94 1019.38 1018.75 1018.09 1017.42
1032.16 1032.19 1032.20 1032.20 1032.19 1032.16 1032.11 1032.03 1031.91 1031.78 1031.62 1031.45 1031.28 1031.10 1030.92 1030.71 1030.47 1030.17 1029.82 1029.42 1028.99 1028.54 1028.11 1027.68 1027.26 1026.84 1026.40 1025.92 1025.39 1024.80 1024.18 1023.53 1022.90 1022.30 1021.74 1021.23 1020.74 1020.25 1019.73 1019.18 1018.57 1017.93 1017.27
1032.31 1032.37 1032.40 1032.40 1032.39 1032.34 1032.27 1032.18 1032.07 1031.94 1031.81 1031.69 1031.56 1031.43 1031.27 1031.06 1030.80 1030.46 1030.06 1029.61 1029.13 1028.64 1028.18 1027.73 1027.31 1026.88 1026.43 1025.93 1025.37 1024.75 1024.08 1023.39 1022.72 1022.08 1021.49 1020.96 1020.46 1019.98 1019.49 1018.97 1018.40 1017.80 1017.18
1032.38 1032.47 1032.52 1032.54 1032.52 1032.46 1032.38 1032.28 1032.17 1032.06 1031.96 1031.88 1031.79 1031.69 1031.55 1031.35 1031.07 1030.71 1030.27 1029.78 1029.26 1028.75 1028.26 1027.80 1027.37 1026.93 1026.46 1025.93 1025.33 1024.67 1023.95 1023.22 1022.49 1021.82 1021.20 1020.66 1020.18 1019.72 1019.27 1018.81 1018.30 1017.76 1017.19
1032.37 1032.50 1032.58 1032.62 1032.61 1032.55 1032.46 1032.36 1032.25 1032.15 1032.07 1032.01 1031.95 1031.87 1031.74 1031.55 1031.26 1030.88 1030.42 1029.92 1029.39 1028.86 1028.36 1027.90 1027.45 1026.99 1026.49 1025.93 1025.30 1024.59 1023.82 1023.04 1022.27 1021.56 1020.93 1020.39 1019.92 1019.50 1019.10 1018.70 1018.27 1017.79 1017.29
1032.29 1032.47 1032.60 1032.67 1032.67 1032.63 1032.54 1032.42 1032.31 1032.21 1032.13 1032.06 1032.01 1031.93 1031.81 1031.62 1031.33 1030.96 1030.50 1030.00 1029.47 1028.96 1028.46 1027.99 1027.53 1027.06 1026.53 1025.94 1025.26 1024.50 1023.69 1022.86 1022.06 1021.33 1020.69 1020.15 1019.70 1019.31 1018.97 1018.63 1018.27 1017.87 1017.43
1032.14 1032.39 1032.57 1032.69 1032.73 1032.70 1032.62 1032.50 1032.37 1032.24 1032.14 1032.05 1031.98 1031.88 1031.75 1031.55 1031.27 1030.91 1030.47 1029.99 1029.49 1029.00 1028.52 1028.05 1027.59 1027.09 1026.54 1025.92 1025.20 1024.41 1023.57 1022.71 1021.88 1021.13 1020.48 1019.94 1019.50 1019.14 1018.84 1018.55 1018.25 1017.91 1017.53
1031.92 1032.25 1032.51 1032.69 1032.78 1032.78 1032.71 1032.58 1032.43 1032.27 1032.12 1031.98 1031.86 1031.73 1031.56 1031.35 1031.08 1030.73 1030.33 1029.88 1029.42 1028.95 1028.49 1028.04 1027.57 1027.07 1026.50 1025.85 1025.11 1024.30 1023.44 1022.57 1021.72 1020.96 1020.29 1019.74 1019.30 1018.96 1018.67 1018.40 1018.14 1017.85 1017.51
1031.63 1032.05 1032.40 1032.65 1032.80 1032.85 1032.80 1032.67 1032.49 1032.28 1032.07 1031.87 1031.68 1031.49 1031.29 1031.05 1030.77 1030.44 1030.07 1029.66 1029.24 1028.80 1028.37 1027.92 1027.46 1026.95 1026.37 1025.71 1024.97 1024.16 1023.30 1022.43 1021.58 1020.81 1020.13 1019.56 1019.09 1018.72 1018.42 1018.15 1017.90 1017.63 1017.33
1031.30 1031.81 1032.24 1032.57 1032.79 1032.88 1032.86 1032.73 1032.53 1032.28 1032.00 1031.73 1031.46 1031.21 1030.95 1030.68 1030.39 1030.07 1029.72 1029.34 1028.94 1028.53 1028.11 1027.68 1027.21 1026.70 1026.13 1025.49 1024.76 1023.97 1023.13 1022.28 1021.45 1020.67 1019.97 1019.36 1018.85 1018.43 1018.08 1017.78 1017.50 1017.22 1016.94
1030.94 1031.53 1032.05 1032.45 1032.74 1032.88 1032.89 1032.77 1032.54 1032.25 1031.92 1031.57 1031.23 1030.91 1030.59 1030.29 1029.98 1029.65 1029.31 1028.94 1028.56 1028.16 1027.74 1027.31 1026.85 1026.34 1025.79 1025.16 1024.48 1023.73 1022.94 1022.12 1021.31 1020.53 1019.81 1019.16 1018.59 1018.09 1017.67 1017.30 1016.97 1016.67 1016.37
1030.60 1031.25 1031.83 1032.30 1032.64 1032.83 1032.86 1032.75 1032.52 1032.19 1031.81 1031.40 1030.99 1030.61 1030.24 1029.89 1029.56 1029.21 1028.86 1028.49 1028.10 1027.70 1027.27 1026.83 1026.36 1025.87 1025.33 1024.75 1024.11 1023.42 1022.69 1021.93 1021.15 1020.38 1019.64 1018.94 1018.30 1017.72 1017.21 1016.75 1016.36 1016.01 1015.70
1030.32 1031.01 1031.63 1032.14 1032.51 1032.73 1032.79 1032.68 1032.44 1032.09 1031.67 1031.21 1030.76 1030.32 1029.91 1029.52 1029.15 1028.78 1028.40 1028.01 1027.60 1027.16 1026.71 1026.25 1025.78 1025.28 1024.77 1024.23 1023.66 1023.04 1022.38 1021.68 1020.94 1020.19 1019.44 1018.70 1017.99 1017.33 1016.73 1016.19 1015.73 1015.33 1014.98
Thickness
5675 5675 5676 5680 5683 5686 5689 5691 5693 5695 5697 5698 5700 5701 5702 5703 5703 5704 5705 5705 5706 5707 5707 5708 5708 5709 5709 5709 5710 5710 5710 5710 5710 5710 5711 5711 5711 5711 5712 5712 5713 5713 5711
5669 5671 5671 5675 5679 5681 5684 5686 5689 5690 5692 5694 5695 5696 5698 5699 5700 5700 5701 5702 5703 5703 5704 5704 5705 5705 5705 5706 5706 5706 5706 5707 5707 5707 5708 5708 5708 5708 5708 5709 5710 5709 5708
5665 5666 5667 5671 5674 5677 5679 5681 5683 5685 5687 5689 5690 5691 5693 5694 5695 5696 5697 5698 5699 5699 5700 5700 5701 5701 5701 5702 5702 5702 5703 5703 5704 5704 5706 5707 5706 5705 5705 5705 5706 5706 5705
5660 5661 5663 5665 5668 5671 5673 5675 5678 5679 5681 5683 5685 5686 5688 5689 5690 5691 5692 5693 5694 5695 5695 5696 5697 5697 5697 5698 5698 5699 5699 5699 5700 5702 5705 5705 5704 5702 5702 5702 5702 5702 5702
5655 5656 5657 5659 5662 5665 5667 5670 5672 5674 5676 5677 5679 5680 5682 5684 5685 5685 5687 5688 5689 5690 5691 5692 5692 5693 5693 5694 5694 5694 5695 5696 5697 5700 5701 5701 5700 5698 5699 5699 5699 5698 5698
5648 5650 5651 5653 5656 5658 5661 5664 5665 5667 5669 5671 5673 5674 5675 5677 5679 5680 5681 5682 5684 5685 5686 5687 5687 5688 5689 5689 5689 5690 5691 5692 5694 5697 5697 5697 5696 5695 5695 5695 5695 5695 5695
5641 5643 5644 5646 5649 5651 5654 5656 5658 5660 5662 5664 5666 5667 5669 5670 5672 5674 5675 5677 5678 5679 5680 5681 5682 5683 5684 5684 5685 5685 5686 5688 5691 5693 5693 5693 5692 5691 5691 5691 5691 5691 5691
5633 5635 5637 5639 5641 5644 5646 5648 5651 5652 5654 5656 5658 5660 5661 5663 5665 5667 5669 5670 5672 5674 5675 5676 5677 5678 5679 5679 5680 5680 5681 5683 5686 5688 5688 5688 5687 5687 5687 5688 5687 5687 5687
5625 5627 5629 5631 5633 5635 5638 5640 5643 5644 5646 5648 5650 5652 5653 5655 5657 5659 5661 5664 5666 5667 5669 5670 5671 5672 5673 5674 5674 5675 5676 5679 5682 5683 5684 5683 5682 5683 5683 5683 5684 5684 5683
5617 5620 5622 5624 5626 5628 5630 5632 5634 5636 5638 5640 5641 5643 5645 5647 5649 5652 5654 5656 5659 5661 5662 5663 5665 5666 5667 5668 5669 5670 5671 5674 5677 5678 5679 5678 5677 5678 5678 5679 5679 5679 5679
5608 5610 5612 5615 5618 5620 5622 5623 5625 5627 5629 5631 5632 5634 5636 5639 5641 5644 5646 5648 5651 5653 5655 5657 5658 5659 5660 5661 5663 5664 5666 5670 5672 5673 5673 5672 5673 5673 5674 5674 5674 5675 5675
5598 5600 5602 5605 5608 5611 5613 5615 5616 5618 5619 5621 5623 5625 5627 5630 5633 5635 5637 5640 5643 5645 5648 5649 5651 5652 5654 5656 5657 5658 5662 5664 5666 5666 5666 5666 5667 5668 5669 5669 5669 5670 5670
5588 5589 5592 5595 5598 5601 5603 5605 5607 5608 5610 5612 5613 5615 5618 5621 5624 5626 5629 5632 5635 5637 5640 5642 5644 5646 5648 5650 5652 5653 5655 5658 5659 5660 5660 5661 5662 5663 5664 5664 5664 5665 5665
5578 5580 5582 5585 5587 5590 5592 5595 5597 5598 5600 5602 5603 5605 5608 5611 5614 5617 5620 5622 5626 5629 5631 5634 5636 5639 5641 5643 5646 5647 5649 5651 5653 5654 5654 5654 5655 5657 5658 5659 5659 5660 5660
5568 5569 5571 5574 5577 5579 5582 5584 5586 5587 5589 5590 5593 5595 5597 5601 5604 5606 5610 5613 5616 5619 5622 5625 5628 5631 5634 5636 5638 5641 5642 5644 5645 5647 5648 5648 5649 5650 5652 5653 5654 5654 5655
5557 5558 5560 5563 5565 5568 5571 5573 5575 5576 5578 5580 5582 5584 5586 5590 5593 5596 5600 5603 5606 5609 5613 5616 5619 5622 5625 5628 5630 5633 5635 5637 5638 5640 5641 5642 5643 5644 5645 5647 5648 5649 5649
5546 5547 5549 5551 5553 5556 5559 5561 5563 5565 5567 5569 5571 5573 5575 5578 5582 5586 5589 5593 5595 5598 5602 5606 5610 5613 5616 5619 5621 5624 5627 5629 5631 5633 5634 5636 5637 5637 5638 5640 5641 5642 5643
5535 5536 5537 5539 5541 5544 5547 5549 5551 5553 5555 5557 5559 5561 5564 5567 5570 5574 5578 5582 5585 5588 5591 5596 5600 5603 5606 5609 5612 5615 5618 5620 5623 5625 5627 5629 5630 5631 5632 5633 5634 5635 5636
5523 5524 5525 5527 5529 5532 5534 5536 5539 5542 5543 5545 5546 5549 5551 5554 5558 5562 5566 5570 5573 5577 5581 5585 5589 5593 5596 5599 5602 5605 5609 5612 5615 5617 5620 5621 5622 5623 5625 5625 5626 5627 5629
5511 5512 5513 5515 5517 5519 5522 5524 5527 5530 5531 5532 5534 5536 5538 5541 5545 5549 5553 5557 5560 5565 5569 5573 5577 5580 5584 5586 5590 5594 5598 5603 5606 5608 5611 5613 5614 5615 5617 5618 5619 5620 5621
5500 5500 5501 5502 5504 5506 5509 5511 5515 5517 5519 5520 5522 5523 5524 5527 5531 5535 5539 5543 5547 5552 5556 5560 5564 5568 5571 5574 5578 5582 5588 5593 5597 5600 5602 5604 5606 5607 5608 5610 5611 5613 5614
5489 5489 5489 5490 5491 5492 5494 5496 5499 5502 5505 5507 5508 5510 5511 5514 5517 5520 5525 5529 5533 5537 5542 5546 5550 5553 5558 5561 5565 5569 5576 5582 5586 5589 5592 5594 5597 5598 5599 5601 5603 5604 5606
5478 5478 5477 5478 5478 5480 5481 5483 5486 5489 5492 5494 5496 5497 5498 5500 5503 5505 5509 5514 5518 5523 5528 5531 5535 5539 5544 5548 5552 5556 5562 5571 5574 5578 5581 5584 5586 5588 5590 5592 5594 5596 5597
5466 5466 5466 5466 5466 5467 5468 5470 5473 5476 5479 5481 5482 5484 5485 5487 5489 5491 5494 5498 5502 5507 5512 5516 5520 5524 5529 5534 5538 5543 5549 5554 5557 5565 5569 5572 5575 5577 5579 5581 5584 5586 5588
5455 5455 5455 5455 5454 5455 5456 5457 5459 5462 5464 5465 5468 5470 5472 5474 5475 5477 5479 5483 5488 5492 5497 5501 5505 5509 5514 5520 5525 5529 5534 5539 5544 5550 5558 5561 5563 5566 5569 5571 5573 5576 5579
5443 5443 5443 5443 5443 5443 5444 5445 5446 5449 5450 5452 5454 5457 5459 5460 5462 5464 5466 5470 5474 5477 5481 5487 5492 5496 5500 5505 5511 5516 5521 5527 5533 5538 5545 5549 5552 5555 5557 5560 5563 5565 5568